Terminal Aerodrome Forecast
Issued by NWS Sterling, VA

Current Version | Previous Version | Graphics & Text | Print | Product List | Glossary On
Versions: 1 2 3 4 5 6 7 8 9 10 11 12 13 14 15 16 17 18 19 20 21 22 23 24 25 26
000
FTUS41 KLWX 280535
TAFIAD
TAF
KIAD 280535Z 2806/2912 34010KT P6SM SCT150
     FM281400 32014G23KT P6SM BKN060
     FM282200 31012KT P6SM SCT060
     FM290100 32008KT P6SM FEW250=

USA.gov is the U.S. government's official web portal to all federal, state and local government web resources and services.